Wetterdaten: Dienstag, 05.01.2010
Datum Zeit Temp. A. Feuchte A. Luftdruck Regen Wind Richtung Richtung Sonnenschein UV Solar Windben
05.01.2010 00:00 -3,9 C 87 % 1011,2 hPa 0,0 mm 0,0 km/h (0 Bft) S-SW 202 0 min 0 UV-I 0 W/m 1,6 km/h (1 Bft)
05.01.2010 00:10 -3,8 C 87 % 1011,2 hPa 0,0 mm 0,0 km/h (0 Bft) N 0 0 min 0 UV-I 0 W/m 0,0 km/h (0 Bft)
05.01.2010 00:20 -3,8 C 87 % 1011,0 hPa 0,0 mm 0,0 km/h (0 Bft) S-SW 202 0 min 0 UV-I 0 W/m 3,2 km/h (1 Bft)
05.01.2010 00:30 -3,8 C 87 % 1010,9 hPa 0,0 mm 0,0 km/h (0 Bft) S-SW 202 0 min 0 UV-I 0 W/m 3,2 km/h (1 Bft)
05.01.2010 00:40 -3,7 C 87 % 1010,8 hPa 0,0 mm 0,0 km/h (0 Bft) S-SW 202 0 min 0 UV-I 0 W/m 1,6 km/h (1 Bft)
05.01.2010 00:50 -3,7 C 87 % 1010,6 hPa 0,0 mm 0,0 km/h (0 Bft) N 0 0 min 0 UV-I 0 W/m 0,0 km/h (0 Bft)
05.01.2010 01:00 -3,7 C 87 % 1010,6 hPa 0,0 mm 0,0 km/h (0 Bft) N 0 0 min 0 UV-I 0 W/m 0,0 km/h (0 Bft)
05.01.2010 01:10 -3,6 C 87 % 1010,5 hPa 0,0 mm 0,0 km/h (0 Bft) N 0 0 min 0 UV-I 0 W/m 0,0 km/h (0 Bft)
05.01.2010 01:20 -3,6 C 87 % 1010,4 hPa 0,0 mm 0,0 km/h (0 Bft) S-SW 202 0 min 0 UV-I 0 W/m 1,6 km/h (1 Bft)
05.01.2010 01:30 -3,6 C 87 % 1010,3 hPa 0,0 mm 0,0 km/h (0 Bft) S-SW 202 0 min 0 UV-I 0 W/m 1,6 km/h (1 Bft)
05.01.2010 01:40 -3,5 C 88 % 1010,2 hPa 0,0 mm 0,0 km/h (0 Bft) N 0 0 min 0 UV-I 0 W/m 0,0 km/h (0 Bft)
05.01.2010 01:50 -3,4 C 88 % 1010,2 hPa 0,0 mm 0,0 km/h (0 Bft) S-SW 202 0 min 0 UV-I 0 W/m 1,6 km/h (1 Bft)
05.01.2010 02:00 -3,4 C 88 % 1010,1 hPa 0,0 mm 0,0 km/h (0 Bft) N 0 0 min 0 UV-I 0 W/m 0,0 km/h (0 Bft)
05.01.2010 02:10 -3,4 C 88 % 1010,0 hPa 0,0 mm 0,0 km/h (0 Bft) N 0 0 min 0 UV-I 0 W/m 0,0 km/h (0 Bft)
05.01.2010 02:20 -3,3 C 88 % 1010,0 hPa 0,0 mm 0,0 km/h (0 Bft) S-SW 202 0 min 0 UV-I 0 W/m 1,6 km/h (1 Bft)
05.01.2010 02:30 -3,3 C 88 % 1010,0 hPa 0,0 mm 0,0 km/h (0 Bft) S-SW 202 0 min 0 UV-I 0 W/m 1,6 km/h (1 Bft)
05.01.2010 02:40 -3,3 C 88 % 1009,9 hPa 0,0 mm 0,0 km/h (0 Bft) S-SW 202 0 min 0 UV-I 0 W/m 3,2 km/h (1 Bft)
05.01.2010 02:50 -3,2 C 88 % 1009,8 hPa 0,0 mm 0,0 km/h (0 Bft) S-SW 202 0 min 0 UV-I 0 W/m 3,2 km/h (1 Bft)
05.01.2010 03:00 -3,2 C 88 % 1009,8 hPa 0,0 mm 0,0 km/h (0 Bft) S-SW 202 0 min 0 UV-I 0 W/m 3,2 km/h (1 Bft)
05.01.2010 03:10 -3,1 C 88 % 1009,7 hPa 0,0 mm 0,0 km/h (0 Bft) S 180 0 min 0 UV-I 0 W/m 4,8 km/h (1 Bft)
05.01.2010 03:20 -3,1 C 88 % 1009,6 hPa 0,0 mm 1,6 km/h (1 Bft) S 180 0 min 0 UV-I 0 W/m 6,4 km/h (2 Bft)
05.01.2010 03:30 -3,0 C 88 % 1009,5 hPa 0,0 mm 0,0 km/h (0 Bft) S 180 0 min 0 UV-I 0 W/m 4,8 km/h (1 Bft)
05.01.2010 03:40 -2,9 C 88 % 1009,5 hPa 0,0 mm 0,0 km/h (0 Bft) S 180 0 min 0 UV-I 0 W/m 1,6 km/h (1 Bft)
05.01.2010 03:50 -2,9 C 88 % 1009,5 hPa 0,0 mm 0,0 km/h (0 Bft) S 180 0 min 0 UV-I 0 W/m 3,2 km/h (1 Bft)
05.01.2010 04:00 -2,9 C 88 % 1009,4 hPa 0,0 mm 0,0 km/h (0 Bft) S 180 0 min 0 UV-I 0 W/m 3,2 km/h (1 Bft)
05.01.2010 04:10 -2,8 C 88 % 1009,3 hPa 0,0 mm 0,0 km/h (0 Bft) S 180 0 min 0 UV-I 0 W/m 3,2 km/h (1 Bft)
05.01.2010 04:20 -2,8 C 88 % 1009,2 hPa 0,0 mm 0,0 km/h (0 Bft) S-SW 202 0 min 0 UV-I 0 W/m 4,8 km/h (1 Bft)
05.01.2010 04:30 -2,8 C 88 % 1009,1 hPa 0,0 mm 0,0 km/h (0 Bft) S-SW 202 0 min 0 UV-I 0 W/m 3,2 km/h (1 Bft)
05.01.2010 04:40 -2,7 C 88 % 1009,0 hPa 0,0 mm 0,0 km/h (0 Bft) S-SW 202 0 min 0 UV-I 0 W/m 3,2 km/h (1 Bft)
05.01.2010 04:50 -2,7 C 88 % 1008,8 hPa 0,0 mm 0,0 km/h (0 Bft) S-SW 202 0 min 0 UV-I 0 W/m 1,6 km/h (1 Bft)
05.01.2010 05:00 -2,6 C 88 % 1008,7 hPa 0,0 mm 0,0 km/h (0 Bft) S-SW 202 0 min 0 UV-I 0 W/m 6,4 km/h (2 Bft)
05.01.2010 05:10 -2,6 C 88 % 1008,6 hPa 0,0 mm 0,0 km/h (0 Bft) S-SW 202 0 min 0 UV-I 0 W/m 4,8 km/h (1 Bft)
05.01.2010 05:20 -2,6 C 88 % 1008,5 hPa 0,0 mm 0,0 km/h (0 Bft) S-SW 202 0 min 0 UV-I 0 W/m 3,2 km/h (1 Bft)
05.01.2010 05:30 -2,6 C 88 % 1008,5 hPa 0,0 mm 0,0 km/h (0 Bft) S-SW 202 0 min 0 UV-I 0 W/m 3,2 km/h (1 Bft)
05.01.2010 05:40 -2,6 C 88 % 1008,5 hPa 0,0 mm 0,0 km/h (0 Bft) S-SW 202 0 min 0 UV-I 0 W/m 4,8 km/h (1 Bft)
05.01.2010 05:50 -2,6 C 87 % 1008,4 hPa 0,0 mm 0,0 km/h (0 Bft) S-SW 202 0 min 0 UV-I 0 W/m 3,2 km/h (1 Bft)
05.01.2010 06:00 -2,6 C 87 % 1008,4 hPa 0,0 mm 0,0 km/h (0 Bft) S-SW 202 0 min 0 UV-I 0 W/m 4,8 km/h (1 Bft)
05.01.2010 06:10 -2,6 C 87 % 1008,2 hPa 0,0 mm 0,0 km/h (0 Bft) S-SW 202 0 min 0 UV-I 0 W/m 3,2 km/h (1 Bft)
05.01.2010 06:20 -2,6 C 87 % 1008,1 hPa 0,0 mm 0,0 km/h (0 Bft) S-SW 202 0 min 0 UV-I 0 W/m 1,6 km/h (1 Bft)
05.01.2010 06:30 -2,6 C 87 % 1008,0 hPa 0,0 mm 0,0 km/h (0 Bft) S-SW 202 0 min 0 UV-I 0 W/m 3,2 km/h (1 Bft)
05.01.2010 06:40 -2,6 C 87 % 1007,9 hPa 0,0 mm 0,0 km/h (0 Bft) S-SW 202 0 min 0 UV-I 0 W/m 3,2 km/h (1 Bft)
05.01.2010 06:50 -2,6 C 87 % 1007,8 hPa 0,0 mm 1,6 km/h (1 Bft) S-SW 202 0 min 0 UV-I 0 W/m 4,8 km/h (1 Bft)
05.01.2010 07:00 -2,6 C 87 % 1007,7 hPa 0,0 mm 0,0 km/h (0 Bft) S 180 0 min 0 UV-I 0 W/m 6,4 km/h (2 Bft)
05.01.2010 07:10 -2,7 C 86 % 1007,6 hPa 0,0 mm 0,0 km/h (0 Bft) S 180 0 min 0 UV-I 0 W/m 6,4 km/h (2 Bft)
05.01.2010 07:20 -2,7 C 86 % 1007,5 hPa 0,0 mm 0,0 km/h (0 Bft) S 180 0 min 0 UV-I 0 W/m 4,8 km/h (1 Bft)
05.01.2010 07:30 -2,8 C 86 % 1007,5 hPa 0,0 mm 0,0 km/h (0 Bft) S 180 0 min 0 UV-I 0 W/m 4,8 km/h (1 Bft)
05.01.2010 07:40 -2,8 C 86 % 1007,5 hPa 0,0 mm 0,0 km/h (0 Bft) S-SO 157 0 min 0 UV-I 0 W/m 3,2 km/h (1 Bft)
05.01.2010 07:50 -2,8 C 86 % 1007,3 hPa 0,0 mm 0,0 km/h (0 Bft) S-SO 157 0 min 0 UV-I 0 W/m 4,8 km/h (1 Bft)
05.01.2010 08:00 -2,8 C 86 % 1007,3 hPa 0,0 mm 1,4 km/h (1 Bft) SO 140 0 min 0 UV-I 0 W/m 3,2 km/h (1 Bft)
05.01.2010 08:10 -2,8 C 86 % 1007,3 hPa 0,0 mm 1,6 km/h (1 Bft) SO 135 0 min 0 UV-I 0 W/m 8,0 km/h (2 Bft)
05.01.2010 08:20 -2,8 C 86 % 1007,4 hPa 0,0 mm 1,6 km/h (1 Bft) O-SO 112 0 min 0 UV-I 0 W/m 6,4 km/h (2 Bft)
05.01.2010 08:30 -2,8 C 86 % 1007,4 hPa 0,0 mm 1,6 km/h (1 Bft) SO 135 0 min 0 UV-I 0 W/m 6,4 km/h (2 Bft)
05.01.2010 08:40 -2,7 C 86 % 1007,5 hPa 0,0 mm 1,6 km/h (1 Bft) SO 135 0 min 0 UV-I 0 W/m 8,0 km/h (2 Bft)
05.01.2010 08:50 -2,7 C 86 % 1007,5 hPa 0,0 mm 1,6 km/h (1 Bft) S 180 0 min 0 UV-I 5 W/m 6,4 km/h (2 Bft)
05.01.2010 09:00 -2,7 C 86 % 1007,3 hPa 0,0 mm 1,6 km/h (1 Bft) S 180 0 min 0 UV-I 9 W/m 6,4 km/h (2 Bft)
05.01.2010 09:10 -2,7 C 86 % 1007,3 hPa 0,0 mm 1,6 km/h (1 Bft) SO 135 0 min 0 UV-I 14 W/m 6,4 km/h (2 Bft)
05.01.2010 09:20 -2,7 C 86 % 1007,3 hPa 0,0 mm 1,6 km/h (1 Bft) S-SO 157 0 min 0 UV-I 16 W/m 4,8 km/h (1 Bft)
05.01.2010 09:30 -2,7 C 86 % 1007,3 hPa 0,0 mm 1,6 km/h (1 Bft) S-SO 157 0 min 0 UV-I 28 W/m 6,4 km/h (2 Bft)
05.01.2010 09:40 -2,6 C 86 % 1007,2 hPa 0,0 mm 1,6 km/h (1 Bft) SO 135 0 min 0 UV-I 30 W/m 4,8 km/h (1 Bft)
05.01.2010 09:50 -2,6 C 86 % 1007,1 hPa 0,0 mm 1,6 km/h (1 Bft) SO 135 0 min 0 UV-I 30 W/m 6,4 km/h (2 Bft)
05.01.2010 10:00 -2,5 C 86 % 1007,1 hPa 0,0 mm 1,6 km/h (1 Bft) S-SO 157 0 min 0 UV-I 32 W/m 8,0 km/h (2 Bft)
05.01.2010 10:10 -2,4 C 86 % 1007,0 hPa 0,0 mm 1,6 km/h (1 Bft) S 180 0 min 0 UV-I 33 W/m 9,7 km/h (2 Bft)
05.01.2010 10:20 -2,4 C 86 % 1006,9 hPa 0,0 mm 1,6 km/h (1 Bft) S-SO 157 0 min 0 UV-I 44 W/m 6,4 km/h (2 Bft)
05.01.2010 10:30 -2,3 C 86 % 1006,9 hPa 0,0 mm 1,6 km/h (1 Bft) S-SO 157 0 min 0 UV-I 56 W/m 8,0 km/h (2 Bft)
05.01.2010 10:40 -2,2 C 86 % 1006,9 hPa 0,0 mm 1,6 km/h (1 Bft) O-SO 112 0 min 0 UV-I 69 W/m 8,0 km/h (2 Bft)
05.01.2010 10:50 -2,1 C 86 % 1006,8 hPa 0,0 mm 1,6 km/h (1 Bft) SO 135 0 min 0 UV-I 76 W/m 6,4 km/h (2 Bft)
05.01.2010 11:00 -2,0 C 86 % 1006,6 hPa 0,0 mm 3,2 km/h (1 Bft) O-SO 112 0 min 0 UV-I 114 W/m 9,7 km/h (2 Bft)
05.01.2010 11:10 -1,8 C 86 % 1006,5 hPa 0,0 mm 1,6 km/h (1 Bft) O-SO 112 0 min 0 UV-I 114 W/m 8,0 km/h (2 Bft)
05.01.2010 11:20 -1,7 C 86 % 1006,4 hPa 0,0 mm 0,0 km/h (0 Bft) O-SO 112 0 min 0 UV-I 104 W/m 4,8 km/h (1 Bft)
05.01.2010 11:30 -1,4 C 86 % 1006,3 hPa 0,0 mm 0,0 km/h (0 Bft) O-SO 112 0 min 0 UV-I 83 W/m 3,2 km/h (1 Bft)
05.01.2010 11:40 -1,3 C 85 % 1006,3 hPa 0,0 mm 0,0 km/h (0 Bft) O-SO 112 0 min 0 UV-I 65 W/m 6,4 km/h (2 Bft)
05.01.2010 11:50 -1,1 C 84 % 1006,1 hPa 0,0 mm 0,0 km/h (0 Bft) S 180 0 min 0 UV-I 63 W/m 4,8 km/h (1 Bft)
05.01.2010 12:00 -1,1 C 84 % 1006,2 hPa 0,0 mm 0,0 km/h (0 Bft) S-SO 157 0 min 0 UV-I 69 W/m 6,4 km/h (2 Bft)
05.01.2010 12:10 -1,1 C 83 % 1006,0 hPa 0,0 mm 0,0 km/h (0 Bft) S-SO 157 0 min 0 UV-I 86 W/m 4,8 km/h (1 Bft)
05.01.2010 12:20 -1,1 C 82 % 1005,9 hPa 0,0 mm 1,6 km/h (1 Bft) O-SO 112 0 min 1 UV-I 104 W/m 8,0 km/h (2 Bft)
05.01.2010 12:30 -1,1 C 82 % 1005,7 hPa 0,0 mm 1,6 km/h (1 Bft) O-SO 112 0 min 1 UV-I 104 W/m 6,4 km/h (2 Bft)
05.01.2010 12:40 -1,0 C 82 % 1005,5 hPa 0,0 mm 3,2 km/h (1 Bft) O-SO 112 0 min 1 UV-I 93 W/m 8,0 km/h (2 Bft)
05.01.2010 12:50 -1,1 C 81 % 1005,4 hPa 0,0 mm 3,2 km/h (1 Bft) SO 135 0 min 1 UV-I 105 W/m 11,3 km/h (2 Bft)
05.01.2010 13:00 -1,1 C 81 % 1005,4 hPa 0,0 mm 3,2 km/h (1 Bft) O-SO 112 0 min 1 UV-I 123 W/m 8,0 km/h (2 Bft)
05.01.2010 13:10 -1,0 C 82 % 1005,4 hPa 0,0 mm 1,6 km/h (1 Bft) O-SO 112 0 min 1 UV-I 123 W/m 6,4 km/h (2 Bft)
05.01.2010 13:20 -0,8 C 81 % 1005,3 hPa 0,0 mm 4,8 km/h (1 Bft) O-SO 112 0 min 1 UV-I 116 W/m 9,7 km/h (2 Bft)
05.01.2010 13:30 -0,8 C 81 % 1005,4 hPa 0,0 mm 4,8 km/h (1 Bft) O-SO 112 0 min 1 UV-I 116 W/m 8,0 km/h (2 Bft)
05.01.2010 13:40 -0,7 C 81 % 1005,4 hPa 0,0 mm 3,2 km/h (1 Bft) O-SO 112 0 min 1 UV-I 118 W/m 8,0 km/h (2 Bft)
05.01.2010 13:50 -0,7 C 81 % 1005,4 hPa 0,0 mm 1,6 km/h (1 Bft) O-SO 112 0 min 0 UV-I 118 W/m 8,0 km/h (2 Bft)
05.01.2010 14:00 -0,7 C 80 % 1005,2 hPa 0,0 mm 3,2 km/h (1 Bft) O-SO 112 0 min 0 UV-I 88 W/m 9,7 km/h (2 Bft)
05.01.2010 14:10 -0,7 C 80 % 1005,2 hPa 0,0 mm 1,6 km/h (1 Bft) SO 135 0 min 0 UV-I 81 W/m 4,8 km/h (1 Bft)
05.01.2010 14:20 -0,8 C 80 % 1005,1 hPa 0,0 mm 3,2 km/h (1 Bft) O-SO 112 0 min 0 UV-I 81 W/m 8,0 km/h (2 Bft)
05.01.2010 14:30 -0,8 C 80 % 1005,1 hPa 0,0 mm 1,6 km/h (1 Bft) S-SO 157 0 min 0 UV-I 84 W/m 4,8 km/h (1 Bft)
05.01.2010 14:40 -0,9 C 80 % 1005,1 hPa 0,0 mm 1,6 km/h (1 Bft) SO 135 0 min 0 UV-I 72 W/m 8,0 km/h (2 Bft)
05.01.2010 14:50 -0,9 C 79 % 1005,1 hPa 0,0 mm 1,6 km/h (1 Bft) O-SO 112 0 min 0 UV-I 67 W/m 6,4 km/h (2 Bft)
05.01.2010 15:00 -1,0 C 80 % 1005,1 hPa 0,0 mm 1,6 km/h (1 Bft) S-SO 157 0 min 0 UV-I 67 W/m 4,8 km/h (1 Bft)
05.01.2010 15:10 -1,0 C 80 % 1005,1 hPa 0,0 mm 1,6 km/h (1 Bft) SO 135 0 min 0 UV-I 65 W/m 6,4 km/h (2 Bft)
05.01.2010 15:20 -1,1 C 80 % 1005,0 hPa 0,0 mm 1,6 km/h (1 Bft) S-SO 157 0 min 0 UV-I 47 W/m 6,4 km/h (2 Bft)
05.01.2010 15:30 -1,1 C 80 % 1004,9 hPa 0,0 mm 1,6 km/h (1 Bft) O-SO 112 0 min 0 UV-I 58 W/m 6,4 km/h (2 Bft)
05.01.2010 15:40 -1,1 C 80 % 1004,8 hPa 0,0 mm 1,6 km/h (1 Bft) S-SO 157 0 min 0 UV-I 42 W/m 4,8 km/h (1 Bft)
05.01.2010 15:50 -1,2 C 80 % 1004,9 hPa 0,0 mm 1,6 km/h (1 Bft) S-SO 157 0 min 0 UV-I 26 W/m 6,4 km/h (2 Bft)
05.01.2010 16:00 -1,2 C 81 % 1004,8 hPa 0,0 mm 1,4 km/h (1 Bft) O-SO 123 0 min 0 UV-I 14 W/m 3,2 km/h (1 Bft)
05.01.2010 16:10 -1,3 C 81 % 1004,8 hPa 0,0 mm 1,6 km/h (1 Bft) SO 135 10 min 0 UV-I 16 W/m 4,8 km/h (1 Bft)
05.01.2010 16:20 -1,3 C 81 % 1004,7 hPa 0,0 mm 0,0 km/h (0 Bft) S-SO 157 0 min 0 UV-I 9 W/m 4,8 km/h (1 Bft)
05.01.2010 16:30 -1,4 C 81 % 1004,7 hPa 0,0 mm 1,6 km/h (1 Bft) S-SO 157 0 min 0 UV-I 5 W/m 4,8 km/h (1 Bft)
05.01.2010 16:40 -1,5 C 81 % 1004,7 hPa 0,0 mm 0,0 km/h (0 Bft) S-SO 157 0 min 0 UV-I 0 W/m 4,8 km/h (1 Bft)
05.01.2010 16:50 -1,6 C 81 % 1004,8 hPa 0,0 mm 1,6 km/h (1 Bft) S 180 0 min 0 UV-I 0 W/m 4,8 km/h (1 Bft)
05.01.2010 17:00 -1,7 C 82 % 1004,7 hPa 0,0 mm 0,0 km/h (0 Bft) S 180 0 min 0 UV-I 0 W/m 4,8 km/h (1 Bft)
05.01.2010 17:10 -1,7 C 82 % 1004,7 hPa 0,0 mm 1,6 km/h (1 Bft) S-SO 157 0 min 0 UV-I 0 W/m 6,4 km/h (2 Bft)
05.01.2010 17:20 -1,8 C 82 % 1004,6 hPa 0,0 mm 1,6 km/h (1 Bft) S-SO 157 0 min 0 UV-I 0 W/m 4,8 km/h (1 Bft)
05.01.2010 17:30 -1,9 C 82 % 1004,5 hPa 0,0 mm 1,6 km/h (1 Bft) S-SO 157 0 min 0 UV-I 0 W/m 4,8 km/h (1 Bft)
05.01.2010 17:40 -2,0 C 82 % 1004,4 hPa 0,0 mm 1,6 km/h (1 Bft) SO 135 0 min 0 UV-I 0 W/m 4,8 km/h (1 Bft)
05.01.2010 17:50 -2,1 C 82 % 1004,4 hPa 0,0 mm 0,0 km/h (0 Bft) SO 135 0 min 0 UV-I 0 W/m 4,8 km/h (1 Bft)
05.01.2010 18:00 -2,2 C 83 % 1004,4 hPa 0,0 mm 0,0 km/h (0 Bft) SO 135 0 min 0 UV-I 0 W/m 3,2 km/h (1 Bft)
05.01.2010 18:10 -2,2 C 83 % 1004,3 hPa 0,0 mm 0,0 km/h (0 Bft) SO 135 0 min 0 UV-I 0 W/m 1,6 km/h (1 Bft)
05.01.2010 18:20 -2,3 C 83 % 1004,2 hPa 0,0 mm 0,0 km/h (0 Bft) SO 135 0 min 0 UV-I 0 W/m 3,2 km/h (1 Bft)
05.01.2010 18:30 -2,3 C 83 % 1004,1 hPa 0,0 mm 1,6 km/h (1 Bft) SO 135 0 min 0 UV-I 0 W/m 4,8 km/h (1 Bft)
05.01.2010 18:40 -2,3 C 84 % 1004,1 hPa 0,0 mm 1,6 km/h (1 Bft) SO 135 0 min 0 UV-I 0 W/m 4,8 km/h (1 Bft)
05.01.2010 18:50 -2,4 C 84 % 1004,2 hPa 0,0 mm 1,6 km/h (1 Bft) O-SO 112 0 min 0 UV-I 0 W/m 6,4 km/h (2 Bft)
05.01.2010 19:00 -2,4 C 84 % 1004,1 hPa 0,0 mm 1,6 km/h (1 Bft) O-SO 112 0 min 0 UV-I 0 W/m 4,8 km/h (1 Bft)
05.01.2010 19:10 -2,5 C 84 % 1004,1 hPa 0,0 mm 1,6 km/h (1 Bft) O-SO 112 0 min 0 UV-I 0 W/m 4,8 km/h (1 Bft)
05.01.2010 19:20 -2,5 C 84 % 1004,1 hPa 0,0 mm 1,6 km/h (1 Bft) O-SO 112 0 min 0 UV-I 0 W/m 4,8 km/h (1 Bft)
05.01.2010 19:30 -2,6 C 84 % 1004,1 hPa 0,0 mm 1,6 km/h (1 Bft) O-SO 112 0 min 0 UV-I 0 W/m 4,8 km/h (1 Bft)
05.01.2010 19:40 -2,7 C 84 % 1004,1 hPa 0,0 mm 1,6 km/h (1 Bft) O-SO 112 0 min 0 UV-I 0 W/m 4,8 km/h (1 Bft)
05.01.2010 19:50 -2,7 C 84 % 1004,0 hPa 0,0 mm 1,6 km/h (1 Bft) O-SO 112 0 min 0 UV-I 0 W/m 4,8 km/h (1 Bft)
05.01.2010 20:00 -2,8 C 84 % 1003,9 hPa 0,0 mm 3,2 km/h (1 Bft) O-SO 112 0 min 0 UV-I 0 W/m 6,4 km/h (2 Bft)
05.01.2010 20:10 -2,9 C 84 % 1003,9 hPa 0,0 mm 1,6 km/h (1 Bft) O-SO 112 0 min 0 UV-I 0 W/m 8,0 km/h (2 Bft)
05.01.2010 20:20 -3,1 C 84 % 1004,0 hPa 0,0 mm 1,6 km/h (1 Bft) O 90 0 min 0 UV-I 0 W/m 6,4 km/h (2 Bft)
05.01.2010 20:30 -3,2 C 84 % 1004,0 hPa 0,0 mm 1,6 km/h (1 Bft) O 90 0 min 0 UV-I 0 W/m 4,8 km/h (1 Bft)
05.01.2010 20:40 -3,2 C 83 % 1004,1 hPa 0,0 mm 3,2 km/h (1 Bft) O 90 0 min 0 UV-I 0 W/m 8,0 km/h (2 Bft)
05.01.2010 20:50 -3,4 C 83 % 1004,1 hPa 0,0 mm 1,6 km/h (1 Bft) O-SO 112 0 min 0 UV-I 0 W/m 6,4 km/h (2 Bft)
05.01.2010 21:00 -3,6 C 83 % 1003,9 hPa 0,0 mm 3,2 km/h (1 Bft) O-SO 112 0 min 0 UV-I 0 W/m 6,4 km/h (2 Bft)
05.01.2010 21:10 -3,7 C 83 % 1003,8 hPa 0,0 mm 3,2 km/h (1 Bft) O-SO 112 0 min 0 UV-I 0 W/m 8,0 km/h (2 Bft)
05.01.2010 21:20 -3,9 C 83 % 1003,9 hPa 0,0 mm 1,6 km/h (1 Bft) O 90 0 min 0 UV-I 0 W/m 6,4 km/h (2 Bft)
05.01.2010 21:30 -4,0 C 83 % 1003,9 hPa 0,0 mm 1,6 km/h (1 Bft) O 90 0 min 0 UV-I 0 W/m 4,8 km/h (1 Bft)
05.01.2010 21:40 -4,2 C 83 % 1003,8 hPa 0,0 mm 1,6 km/h (1 Bft) O-SO 112 0 min 0 UV-I 0 W/m 6,4 km/h (2 Bft)
05.01.2010 21:50 -4,3 C 83 % 1003,8 hPa 0,0 mm 1,6 km/h (1 Bft) O-SO 112 0 min 0 UV-I 0 W/m 6,4 km/h (2 Bft)
05.01.2010 22:00 -4,4 C 83 % 1003,7 hPa 0,0 mm 3,2 km/h (1 Bft) O 90 0 min 0 UV-I 0 W/m 6,4 km/h (2 Bft)
05.01.2010 22:10 -4,4 C 83 % 1003,6 hPa 0,0 mm 1,6 km/h (1 Bft) O 90 0 min 0 UV-I 0 W/m 4,8 km/h (1 Bft)
05.01.2010 22:20 -4,5 C 84 % 1003,6 hPa 0,0 mm 1,6 km/h (1 Bft) O 90 0 min 0 UV-I 0 W/m 6,4 km/h (2 Bft)
05.01.2010 22:30 -4,5 C 84 % 1003,5 hPa 0,0 mm 1,6 km/h (1 Bft) O-SO 112 0 min 0 UV-I 0 W/m 4,8 km/h (1 Bft)
05.01.2010 22:40 -4,5 C 84 % 1003,3 hPa 0,0 mm 0,0 km/h (0 Bft) O-SO 112 0 min 0 UV-I 0 W/m 3,2 km/h (1 Bft)
05.01.2010 22:50 -4,5 C 84 % 1003,3 hPa 0,0 mm 0,0 km/h (0 Bft) O-SO 112 0 min 0 UV-I 0 W/m 3,2 km/h (1 Bft)
05.01.2010 23:00 -4,6 C 84 % 1003,4 hPa 0,0 mm 0,0 km/h (0 Bft) O-SO 112 0 min 0 UV-I 0 W/m 3,2 km/h (1 Bft)
05.01.2010 23:10 -4,6 C 84 % 1003,4 hPa 0,0 mm 1,6 km/h (1 Bft) O-SO 112 0 min 0 UV-I 0 W/m 3,2 km/h (1 Bft)
05.01.2010 23:20 -4,7 C 84 % 1003,4 hPa 0,0 mm 0,7 km/h (0 Bft) O-SO 105 0 min 0 UV-I 0 W/m 3,2 km/h (1 Bft)
05.01.2010 23:30 -4,8 C 84 % 1003,3 hPa 0,0 mm 0,7 km/h (0 Bft) O-SO 105 0 min 0 UV-I 0 W/m 3,2 km/h (1 Bft)
05.01.2010 23:40 -4,9 C 84 % 1003,4 hPa 0,0 mm 0,1 km/h (0 Bft) O-SO 105 0 min 0 UV-I 0 W/m 1,6 km/h (1 Bft)
05.01.2010 23:50 -5,1 C 84 % 1003,3 hPa 0,0 mm 0,0 km/h (0 Bft) O-SO 105 0 min 0 UV-I 0 W/m 0,0 km/h (0 Bft)
_ Min-Zeit 23:50 14:50 22:40 - 00:00 - - - - - 00:10
Minimum _ -5,1 C 79 % 1003,3 hPa - 0,0 km/h (0 Bft) - - - - - 0,0 km/h (0 Bft)
_ Max-Zeit 13:40 01:40 00:00 00:00 13:20 - - 16:10 13:00 13:00 12:50
Maximum _ -0,7 C 88 % 1011,2 hPa 0,0 mm 4,8 km/h
O-SO (1 Bft)
- - 10 min 1 UV-I 123 W/m 11,3 km/h
SO (2 Bft)
Durchschnitt _ -2,6 C 85 % 1006,5 hPa #0,0 mm 1,1 km/h (0 Bft) O-SO - #10 min. 1 UV-I 66 W/m 4,9 km/h (1 Bft)